162P/Siding Spring (2020)

Japanese version
Home page
Updated on February 20, 2021

---------------------------------------------------------------------

* Profile

* Pictures

* Orbital Elements

Epoch 2020 Dec. 17.0 TT = JDT 2459200.5
T 2020 Dec. 7.82008 TT                                  Rudenko
q   1.2891350            (2000.0)            P               Q
n   0.18141176     Peri.  357.13422     +0.87966222     -0.41197228
a   3.0904787      Node    30.91115     +0.44503716     +0.53678736
e   0.5828688      Incl.   27.55495     +0.16773880     +0.73630033
P   5.43
From 2691 observations 1990 Mar. 23-2021 Jan. 29, mean residual 0".8.

* Finding Charts

* Magnitudes Graph

        H = 13.7  G = 0.15

---------------------------------------------------------------------

The orbital elements are published on M.P.E.C. 2021-B143.
The charts are made with StellaNavigator Ver.10 (AstroArts).
The magnitudes graphs are made with Comet for Windows.

---------------------------------------------------------------------

Copyright(C) Seiichi Yoshida (comet@aerith.net). All rights reserved.